{"data":{"norad_id":68199,"epoch":"2026-05-24T21:59:00.274560Z","epoch_age_seconds":76093,"freshness":"FRESH","line1":"1 68199U 26052B   26144.91597540  .00003641  00000+0  22381-3 0  9997","line2":"2 68199  97.5331 220.0592 0013268  36.7784 323.4353 15.10615501 10535","mean_motion":15.10615501,"eccentricity":0.0013268,"inclination_deg":97.5331,"raan_deg":220.0592,"arg_perigee_deg":36.7784,"mean_anomaly_deg":323.4353,"bstar":0.00022381,"rev_number":1053,"period_min":95.325382206574,"perigee_km":525.15025870055,"apogee_km":543.49315913053,"semimajor_km":6912.4587089155,"source":"CELESTRAK","updated_at":"2026-05-25T13:38:07.619447Z"}}